FW4469 Weather Reports


Display with metric or nautical units.
time (UTC)temp
F
wind
direction
speed
MPH
gust
MPH
rain 1hr
in
rain 24hr
in
rain mn
in
humidity
%
barometer
mb
20260510154003 53 312 6.0 13.0 0.00 0.01 0.00 48 1017.3
20260510153003 56 310 6.0 14.0 0.00 0.01 0.00 47 1017.2
20260510152008 54 309 6.0 12.0 0.00 0.01 0.00 56 1017.5
20260510151003 56 307 6.0 10.0 0.00 0.01 0.00 47 1017.4
20260510150008 53 302 6.0 13.0 0.00 0.01 0.00 48 1017.8
20260510145008 57 303 6.0 14.0 0.00 0.01 0.00 51 1017.6
20260510144008 55 305 6.0 11.0 0.00 0.01 0.00 53 1017.8
20260510143008 54 304 6.0 13.0 0.00 0.01 0.00 51 1018.0
20260510142221 53 303 6.0 11.0 0.00 0.01 0.00 57 1017.9
20260510141008 56 305 6.0 11.0 0.00 0.01 0.00 55 1018.1
20260510140008 56 303 6.0 13.0 0.00 0.01 0.00 51 1018.3
20260510135003 55 299 6.0 14.0 0.00 0.01 0.00 58 1018.2
20260510134223 54 302 7.0 10.0 0.00 0.01 0.00 58 1018.3
20260510133008 56 303 7.0 13.0 0.00 0.01 0.00 52 1018.4
20260510132003 55 302 6.0 11.0 0.00 0.01 0.00 58 1018.3
20260510131003 56 307 6.0 12.0 0.00 0.01 0.00 58 1018.5
20260510130003 54 306 6.0 13.0 0.00 0.01 0.00 57 1018.6
20260510125003 53 308 6.0 14.0 0.00 0.01 0.00 60 1018.8
20260510124003 54 306 6.0 17.0 0.00 0.01 0.00 61 1018.9
20260510123003 53 306 6.0 17.0 0.00 0.01 0.00 59 1018.8
20260510122008 54 303 6.0 13.0 0.00 0.01 0.00 64 1019.0
20260510121223 53 302 7.0 14.0 0.00 0.01 0.00 62 1019.1
20260510120008 52 304 6.0 13.0 0.00 0.01 0.00 63 1019.1
20260510115003 50 306 7.0 16.0 0.00 0.01 0.00 65 1019.2
20260510114008 49 304 6.0 12.0 0.00 0.01 0.00 66 1019.2
20260510113003 50 305 6.0 12.0 0.00 0.01 0.00 67 1019.3
20260510112008 51 309 7.0 12.0 0.00 0.01 0.00 68 1019.4
20260510111008 50 307 6.0 12.0 0.00 0.01 0.00 70 1019.6
20260510110003 49 310 6.0 11.0 0.00 0.01 0.00 72 1019.8
20260510105008 50 309 6.0 13.0 0.00 0.01 0.00 71 1019.9
20260510104222 50 306 6.0 14.0 0.00 0.01 0.00 73 1019.9
20260510103008 48 308 6.0 11.0 0.00 0.01 0.00 73 1020.0
20260510102003 47 306 6.0 11.0 0.00 0.01 0.00 76 1020.1
20260510101003 47 309 6.0 12.0 0.00 0.01 0.00 78 1020.2
20260510100218 46 307 6.0 12.0 0.00 0.01 0.00 78 1020.1
20260510095008 46 306 6.0 12.0 0.00 0.01 0.00 79 1020.2
20260510094008 46 311 5.0 13.0 0.00 0.01 0.00 78 1020.4
20260510093008 46 307 5.0 9.0 0.00 0.01 0.00 79 1020.3
20260510092003 45 306 5.0 13.0 0.00 0.01 0.00 80 1020.4
20260510091008 45 307 5.0 12.0 0.00 0.01 0.00 82 1020.5
20260510090008 44 309 5.0 10.0 0.00 0.01 0.00 83 1020.5
20260510085003 44 306 5.0 12.0 0.00 0.01 0.00 83 1020.7
20260510084008 44 306 6.0 12.0 0.00 0.01 0.00 85 1020.4
20260510083003 43 314 6.0 13.0 0.00 0.01 0.00 85 1020.7
20260510082003 43 305 5.0 10.0 0.00 0.01 0.00 85 1020.4
20260510081217 43 311 5.0 16.0 0.00 0.01 0.00 86 1020.4
20260510080008 42 317 4.0 13.0 0.00 0.01 0.00 87 1020.3
20260510075217 42 311 5.0 12.0 0.00 0.01 0.00 88 1020.3
20260510074008 42 303 5.0 11.0 0.00 0.01 0.00 88 1020.5
20260510073003 42 314 5.0 13.0 0.00 0.01 0.00 90 1020.2
20260510072003 42 321 5.0 12.0 0.00 0.01 0.00 90 1020.2
20260510071008 42 299 5.0 10.0 0.00 0.01 0.00 91 1020.4
20260510070008 42 300 4.0 10.0 0.00 0.01 0.00 91 1020.2
20260510065223 42 296 4.0 12.0 0.00 0.01 0.00 91 1020.3
20260510064003 42 309 5.0 10.0 0.00 0.01 0.00 93 1020.3
20260510063008 42 310 5.0 10.0 0.00 0.01 0.00 94 1020.2
20260510062216 42 304 5.0 11.0 0.00 0.01 0.00 94 1020.3
20260510061008 42 304 5.0 11.0 0.00 0.01 0.00 94 1020.4
20260510060008 42 294 5.0 12.0 0.00 0.01 0.00 95 1020.2
20260510055003 42 303 5.0 11.0 0.00 0.01 0.00 96 1019.9
20260510054008 42 309 5.0 12.0 0.00 0.01 0.00 96 1020.1
20260510053003 42 299 4.0 11.0 0.00 0.01 0.00 96 1020.1
20260510052222 42 305 5.0 11.0 0.00 0.01 0.00 96 1020.1
20260510051008 42 319 6.0 13.0 0.00 0.01 0.00 96 1020.1
20260510050003 42 307 5.0 12.0 0.00 0.01 0.00 97 1020.0
20260510045008 42 298 5.0 11.0 0.00 0.01 0.00 97 1020.1
20260510044218 42 304 5.0 12.0 0.00 0.01 0.00 97 1020.2
20260510043003 42 305 5.0 12.0 0.00 0.01 0.00 97 1019.9
20260510042003 42 314 6.0 14.0 0.00 0.01 0.00 97 1019.9
20260510041217 42 317 7.0 16.0 0.00 0.01 0.00 97 1019.8
20260510040008 42 303 5.0 10.0 0.00 0.01 0.00 98 1020.2
20260510035008 42 299 5.0 12.0 0.00 0.01 0.00 98 1020.4
20260510034008 42 307 5.0 13.0 0.00 0.01 0.00 98 1020.4
20260510033003 42 303 5.0 11.0 0.00 0.01 0.00 98 1020.5
20260510032003 42 303 4.0 9.0 0.00 0.01 0.00 98 1020.7
20260510031003 42 299 4.0 10.0 0.00 0.01 0.00 98 1020.7
20260510030003 42 315 5.0 12.0 0.00 0.01 0.00 98 1020.7
20260510025003 42 319 6.0 13.0 0.00 0.01 0.00 98 1020.6
20260510024223 42 319 7.0 14.0 0.00 0.01 0.00 98 1020.7
20260510023008 43 302 5.0 10.0 0.00 0.01 0.00 98 1020.7
20260510022008 43 289 5.0 11.0 0.00 0.01 0.00 98 1020.7
20260510021003 43 304 5.0 10.0 0.00 0.01 0.00 98 1020.6
20260510020223 43 292 5.0 10.0 0.00 0.01 0.00 98 1020.6
20260510015004 43 320 6.0 14.0 0.00 0.01 0.00 98 1020.6
20260510014008 43 319 7.0 16.0 0.00 0.01 0.00 97 1020.4
20260510013003 43 287 6.0 14.0 0.00 0.01 0.00 97 1020.3
20260510012003 43 302 6.0 13.0 0.00 0.01 0.00 97 1020.4
20260510011003 43 297 6.0 13.0 0.00 0.01 0.00 97 1020.6
20260510010003 43 300 5.0 12.0 0.00 0.01 0.00 97 1020.5
20260510005222 43 297 6.0 14.0 0.00 0.01 0.00 97 1020.5
20260510004008 44 305 6.0 13.0 0.00 0.01 0.00 97 1020.7
20260510003218 44 306 6.0 13.0 0.00 0.01 0.00 97 1020.5
20260510002003 44 306 5.0 13.0 0.00 0.01 0.00 97 1020.7
20260510001003 44 299 6.0 13.0 0.00 0.01 0.00 97 1020.6
20260510000008 44 302 6.0 13.0 0.00 0.01 0.00 97 1020.6
20260509235008 44 302 6.0 14.0 0.00 0.01 0.00 97 1020.8
20260509234008 45 302 6.0 12.0 0.00 0.01 0.00 96 1020.5
20260509233008 45 304 6.0 13.0 0.00 0.01 0.00 96 1020.5
20260509232008 45 304 6.0 16.0 0.00 0.01 0.00 96 1020.7
20260509231003 45 305 5.0 10.0 0.00 0.01 0.00 95 1020.7
20260509230003 46 304 6.0 11.0 0.00 0.01 0.00 95 1020.7
20260509225222 46 300 5.0 12.0 0.00 0.01 0.01 95 1020.6
20260509224008 46 301 5.0 11.0 0.00 0.01 0.01 95 1020.5
20260509223003 46 308 5.0 12.0 0.00 0.01 0.01 95 1020.7
20260509222003 46 305 5.0 10.0 0.00 0.01 0.01 94 1020.4
20260509221013 47 308 5.0 11.0 0.00 0.01 0.01 94 1020.2
20260509220008 47 298 5.0 13.0 0.00 0.01 0.01 94 1020.1
20260509215008 47 309 6.0 12.0 0.00 0.01 0.01 93 1020.1
20260509214008 47 304 6.0 13.0 0.00 0.01 0.01 93 1020.3
20260509213008 47 305 6.0 10.0 0.00 0.01 0.01 93 1020.4
20260509212003 48 303 5.0 11.0 0.00 0.01 0.01 93 1020.2
20260509211008 48 308 5.0 12.0 0.00 0.01 0.01 92 1020.3
20260509210003 48 301 5.0 10.0 0.00 0.01 0.01 92 1020.1
20260509205223 48 306 5.0 10.0 0.00 0.01 0.01 91 1020.2
20260509204009 48 302 5.0 10.0 0.00 0.01 0.01 90 1020.2
20260509203216 49 306 5.0 10.0 0.00 0.01 0.01 90 1020.1
20260509202008 49 302 5.0 10.0 0.00 0.01 0.01 89 1020.0
20260509201008 50 306 5.0 10.0 0.00 0.01 0.01 90 1019.9
20260509200013 50 308 5.0 9.0 0.01 0.01 0.01 92 1019.9
20260509195216 50 305 5.0 9.0 0.01 0.02 0.01 92 1019.7
20260509194018 50 311 5.0 8.0 0.01 0.02 0.01 91 1019.7
20260509193018 51 309 5.0 10.0 0.01 0.02 0.01 91 1019.7
20260509192003 51 307 6.0 10.0 0.01 0.02 0.01 92 1019.7
20260509191008 51 318 6.0 13.0 0.00 0.01 0.00 91 1019.4
20260509190008 52 321 6.0 10.0 0.00 0.01 0.00 91 1019.5
20260509185003 52 317 6.0 11.0 0.00 0.01 0.00 88 1019.3
20260509184008 53 323 6.0 11.0 0.00 0.01 0.00 85 1019.2
20260509183218 53 321 6.0 12.0 0.00 0.01 0.00 82 1019.2
20260509182008 53 320 6.0 11.0 0.00 0.01 0.00 79 1018.9
20260509181008 54 325 6.0 10.0 0.00 0.01 0.00 77 1018.8
20260509180218 54 322 6.0 11.0 0.00 0.01 0.00 77 1018.8
20260509175003 54 325 6.0 12.0 0.00 0.01 0.00 77 1018.6
20260509174008 54 323 6.0 11.0 0.00 0.01 0.00 79 1018.5
20260509173217 54 323 6.0 12.0 0.00 0.01 0.00 77 1018.6
20260509172003 55 323 7.0 13.0 0.00 0.01 0.00 79 1018.5
20260509171222 55 324 7.0 15.0 0.00 0.01 0.00 78 1018.5
20260509170008 56 324 6.0 14.0 0.00 0.01 0.00 76 1018.8
20260509165008 57 322 6.0 17.0 0.00 0.01 0.00 76 1018.5
20260509164217 57 322 6.0 17.0 0.00 0.01 0.00 74 1018.6
20260509163223 58 325 6.0 11.0 0.00 0.02 0.00 73 1018.4
20260509162003 58 322 6.0 12.0 0.00 0.02 0.00 70 1018.5
20260509161008 60 319 6.0 9.0 0.00 0.02 0.00 66 1018.5
20260509160008 62 309 6.0 11.0 0.00 0.02 0.00 65 1018.4
20260509155008 63 306 6.0 10.0 0.00 0.02 0.00 58 1018.2